Regional Weather Roundup
Issued by NWS Glasgow, MT

Home | Current Version | Previous Version | Text Only | Print | Product List | Glossary On
Versions: 1 2 3 4 5 6 7 8 9 10 11 12 13 14 15 16 17 18 19 20 21 22 23 24 25 26 27
000
ASUS45 KGGW 222115
RWRGGW
HOURLY REGIONAL WEATHER ROUNDUP FOR NORTHEAST MONTANA
NATIONAL WEATHER SERVICE GLASGOW MONTANA
300 PM MDT SUN OCT 22 2017

NOTE: "FAIR" INDICATES FEW OR NO CLOUDS BELOW 12,000 FEET WITH NO
SIGNIFICANT WEATHER AND/OR OBSTRUCTIONS TO VISISBILITY.

NORTHEAST MONTANA


CITY           SKY/WX    TMP DP  RH WIND       PRES   REMARKS
GLASGOW        MOSUNNY   66  38  35 W26G37    29.57R
WOLF POINT     MOSUNNY   68  36  30 W21G38    29.57R
JORDAN           N/A     65  33  30 W31G55    29.64R
WINNETT          N/A     68  24  19 W33G45      N/A
SIDNEY         CLOUDY    68  36  30 W33G43    29.56F
GLENDIVE       CLOUDY    64  38  38 NW30G37   29.63F

FORT PECK REPORTS


CITY           SKY/WX    TMP DP  RH WIND       PRES   REMARKS
FORT PECK        N/A     65  40  39 SW26G39     N/A
THE PINES        N/A     60  34  37 SW13G21     N/A

SOUTHEAST MONTANA


CITY           SKY/WX    TMP DP  RH WIND       PRES   REMARKS
BILLINGS       CLOUDY    66  33  29 SW29G39   29.81R
MILES CITY     CLOUDY    70  35  27 W36G45    29.67F
BAKER          CLOUDY    64  35  34 W31G53    29.72S
LIVINGSTON     CLOUDY    58  34  40 SW39G55   29.87S

CENTRAL MONTANA


CITY           SKY/WX    TMP DP  RH WIND       PRES   REMARKS
HAVRE          CLOUDY    63  33  32 W44G54    29.66R
LEWISTOWN      SUNNY     62  29  28 W49G61    29.76R
GREAT FALLS    MOSUNNY   55  35  47 W38G58    29.80R
CUT BANK       SUNNY     53  27  36 W39G56    29.74R
HELENA         SUNNY     56  33  42 W28G40    29.94R
BUTTE          LGT RAIN  46  40  79 NW13G22   30.05R
BOZEMAN        CLOUDY    61  34  36 SW26G37   29.93F

WESTERN MONTANA


CITY           SKY/WX    TMP DP  RH WIND       PRES   REMARKS
MISSOULA       PTSUNNY   57  34  41 W18G28    30.04R
KALISPELL      NOT AVBL

NORTH DAKOTA


CITY           SKY/WX    TMP DP  RH WIND       PRES   REMARKS
WILLISTON      MOSUNNY   60  40  47 SW13      29.57F
DICKINSON      CLOUDY    65  33  30 W31G43    29.64F
MINOT          CLOUDY    57  34  41 SW14      29.59F
BISMARCK       CLOUDY    64  34  32 SW16      29.69F

SOUTHERN SASKATCHEWAN


CITY           SKY/WX    TMP DP  RH WIND       PRES   REMARKS
REGINA         MOSUNNY   61  36  39 W21G31    29.40F
MOOSE JAW      MOSUNNY   61  34  36 W30G36    29.43R
ESTEVAN        LGT RAIN  48  45  87 SW17G25   29.50F
SWIFT CURRENT  MOSUNNY   57  28  33 NW32G40   29.47R





USA.gov is the U.S. government's official web portal to all federal, state and local government web resources and services.